,,PA_Meas_PMT16A,,PR_Meas_QMR101_102,,RH_Meas_QMH101,,SR_Meas_QMS101,,TA_Meas_QMH101,,GenWind,,GenWind,
time,status,PA,status,PR,status,RH,status,SR,status,TA,status,DirAvg,status,SpdAvg,
2011-05-20, 00:00:04,VALID,918.071,VALID,0,VALID,97.6331,VALID,0,VALID,19.7598,VALID,162,VALID,0.375781,
2011-05-20, 00:01:04,VALID,918.08,VALID,0,VALID,97.6407,VALID,0,VALID,19.7808,VALID,162,VALID,0.601172,
2011-05-20, 00:02:04,VALID,918.07,VALID,0,VALID,97.6331,VALID,0,VALID,19.7808,VALID,162,VALID,0.773438,
2011-05-20, 00:03:04,VALID,918.121,VALID,0,VALID,97.6407,VALID,0,VALID,19.7403,VALID,162,VALID,1.05859,
2011-05-20, 00:04:04,VALID,918.114,VALID,0,VALID,97.6407,VALID,0,VALID,19.7418,VALID,162,VALID,1.05,
2011-05-20, 00:05:04,VALID,918.122,VALID,0,VALID,97.6483,VALID,0,VALID,19.7613,VALID,162,VALID,0.604297,
2011-05-20, 00:06:04,VALID,918.102,VALID,0,VALID,97.6407,VALID,0.107441,VALID,19.7598,VALID,162,VALID,0.571875,
2011-05-20, 00:07:04,VALID,918.083,VALID,0,VALID,97.6331,VALID,0,VALID,19.7598,VALID,162,VALID,1.40664,
2011-05-20, 00:08:04,VALID,918.074,VALID,0,VALID,97.6178,VALID,0,VALID,19.7793,VALID,162,VALID,0.833203,
2011-05-20, 00:09:04,VALID,918.076,VALID,0,VALID,97.6178,VALID,0,VALID,19.8198,VALID,162,VALID,0.254297,
2011-05-20, 00:10:04,VALID,918.108,VALID,0,VALID,97.6255,VALID,0,VALID,19.8198,VALID,162,VALID,0.422266,
2011-05-20, 00:11:04,VALID,918.095,VALID,0,VALID,97.6255,VALID,0,VALID,19.7988,VALID,162,VALID,0.295703,
2011-05-20, 00:12:04,VALID,918.069,VALID,0,VALID,97.6255,VALID,0,VALID,19.7598,VALID,161,VALID,0.433594,
2011-05-20, 00:13:04,VALID,918.072,VALID,0,VALID,97.6178,VALID,0,VALID,19.7418,VALID,162,VALID,0.401563,
2011-05-20, 00:14:04,VALID,918.085,VALID,0,VALID,97.6331,VALID,0,VALID,19.7223,VALID,162,VALID,0.324609,
2011-05-20, 00:15:04,VALID,918.092,VALID,0,VALID,97.6178,VALID,0,VALID,19.7013,VALID,162,VALID,0.392188,
2011-05-20, 00:16:04,VALID,918.049,VALID,0,VALID,97.6255,VALID,0,VALID,19.7013,VALID,162,VALID,0.462109,
2011-05-20, 00:17:04,VALID,918.056,VALID,0,VALID,97.6407,VALID,0.107441,VALID,19.7223,VALID,161,VALID,0.432031,
2011-05-20, 00:18:04,VALID,918.054,VALID,0,VALID,97.6407,VALID,0,VALID,19.7223,VALID,161,VALID,0.448828,
2011-05-20, 00:19:04,VALID,918.049,VALID,0,VALID,97.6331,VALID,0,VALID,19.7028,VALID,161,VALID,0.476172,
2011-05-20, 00:20:04,VALID,918.084,VALID,0,VALID,97.6331,VALID,0,VALID,19.7223,VALID,161,VALID,0.553516,
2011-05-20, 00:21:04,VALID,918.11,VALID,0,VALID,97.6331,VALID,0,VALID,19.7028,VALID,161,VALID,0.359766,
2011-05-20, 00:22:04,VALID,918.104,VALID,0,VALID,97.6331,VALID,0,VALID,19.7223,VALID,135,VALID,0.610937,
2011-05-20, 00:23:04,VALID,918.11,VALID,0,VALID,97.6255,VALID,0,VALID,19.7418,VALID,135,VALID,0.731641,
2011-05-20, 00:24:04,VALID,918.137,VALID,0,VALID,97.6331,VALID,0,VALID,19.7613,VALID,171,VALID,0.566406,
2011-05-20, 00:25:04,VALID,918.15,VALID,0,VALID,97.6483,VALID,0,VALID,19.7613,VALID,156,VALID,1.55664,
2011-05-20, 00:26:04,VALID,918.15,VALID,0,VALID,97.656,VALID,0,VALID,19.8003,VALID,179,VALID,0.782031,
2011-05-20, 00:27:04,VALID,918.151,VALID,0,VALID,97.6102,VALID,0,VALID,19.8198,VALID,151,VALID,1.45742,
2011-05-20, 00:28:04,VALID,918.164,VALID,0,VALID,97.6255,VALID,0,VALID,19.8393,VALID,119,VALID,1.46055,
2011-05-20, 00:29:04,VALID,918.152,VALID,0,VALID,97.6331,VALID,0,VALID,19.8603,VALID,139,VALID,1.37734,
2011-05-20, 00:30:04,VALID,918.159,VALID,0,VALID,97.6407,VALID,0,VALID,19.8393,VALID,113,VALID,1.34102,
2011-05-20, 00:31:04,VALID,918.155,VALID,0,VALID,97.6636,VALID,0,VALID,19.8588,VALID,125,VALID,1.04844,
2011-05-20, 00:32:04,VALID,918.173,VALID,0,VALID,97.6178,VALID,0,VALID,19.8183,VALID,115,VALID,0.994922,
2011-05-20, 00:33:04,VALID,918.185,VALID,0,VALID,97.6483,VALID,0,VALID,19.8393,VALID,115,VALID,0.992188,
2011-05-20, 00:34:04,VALID,918.17,VALID,0,VALID,97.6331,VALID,0,VALID,19.8198,VALID,115,VALID,0.996484,
2011-05-20, 00:35:04,VALID,918.149,VALID,0,VALID,97.6255,VALID,0,VALID,19.8408,VALID,132,VALID,1.35586,
2011-05-20, 00:36:04,VALID,918.169,VALID,0,VALID,97.6255,VALID,0,VALID,19.7988,VALID,132,VALID,1.06445,
2011-05-20, 00:37:04,VALID,918.162,VALID,0,VALID,97.6255,VALID,0,VALID,19.8393,VALID,136,VALID,1.01719,
2011-05-20, 00:38:04,VALID,918.16,VALID,0,VALID,97.6331,VALID,0,VALID,19.8198,VALID,140,VALID,1.34336,
2011-05-20, 00:39:04,VALID,918.142,VALID,0,VALID,97.6102,VALID,0,VALID,19.8393,VALID,148,VALID,0.942578,
2011-05-20, 00:40:04,VALID,918.189,VALID,0,VALID,97.6407,VALID,0,VALID,19.8378,VALID,144,VALID,1.18516,
2011-05-20, 00:41:04,VALID,918.151,VALID,0,VALID,97.6178,VALID,0,VALID,19.8588,VALID,171,VALID,1.38555,
2011-05-20, 00:42:04,VALID,918.145,VALID,0,VALID,97.6331,VALID,0,VALID,19.8588,VALID,141,VALID,0.75625,
2011-05-20, 00:43:04,VALID,918.157,VALID,0,VALID,97.6407,VALID,0,VALID,19.8783,VALID,119,VALID,1.0957,
2011-05-20, 00:44:04,VALID,918.147,VALID,0,VALID,97.6407,VALID,0,VALID,19.8588,VALID,125,VALID,1.38203,
2011-05-20, 00:45:04,VALID,918.103,VALID,0,VALID,97.6407,VALID,0,VALID,19.8588,VALID,121,VALID,1.15781,
2011-05-20, 00:46:04,VALID,918.085,VALID,0,VALID,97.6331,VALID,0,VALID,19.8588,VALID,111,VALID,1.35117,
2011-05-20, 00:47:04,VALID,918.044,VALID,0,VALID,97.6178,VALID,0,VALID,19.8573,VALID,101,VALID,1.47539,
2011-05-20, 00:48:04,VALID,918.04,VALID,0,VALID,97.595,VALID,0,VALID,19.8783,VALID,112,VALID,1.20586,
2011-05-20, 00:49:04,VALID,918.013,VALID,0,VALID,97.6255,VALID,0,VALID,19.8783,VALID,110,VALID,1.38398,
2011-05-20, 00:50:04,VALID,918.006,VALID,0,VALID,97.6102,VALID,0,VALID,19.8378,VALID,115,VALID,1.48203,
2011-05-20, 00:51:04,VALID,917.985,VALID,0,VALID,97.6102,VALID,0,VALID,19.8783,VALID,122,VALID,1.63711,
2011-05-20, 00:52:04,VALID,918.008,VALID,0,VALID,97.6331,VALID,0,VALID,19.8588,VALID,130,VALID,1.1582,
2011-05-20, 00:53:04,VALID,918.013,VALID,0,VALID,97.5873,VALID,0,VALID,19.8573,VALID,134,VALID,1.0582,
2011-05-20, 00:54:04,VALID,917.997,VALID,0,VALID,97.595,VALID,0,VALID,19.8783,VALID,170,VALID,1.33125,
2011-05-20, 00:55:04,VALID,917.997,VALID,0,VALID,97.6026,VALID,0,VALID,19.8588,VALID,164,VALID,1.16875,
2011-05-20, 00:56:04,VALID,917.935,VALID,0,VALID,97.6026,VALID,0,VALID,19.8588,VALID,212,VALID,0.887109,
2011-05-20, 00:57:04,VALID,917.973,VALID,0,VALID,97.6178,VALID,0,VALID,19.8183,VALID,139,VALID,0.575781,
2011-05-20, 00:58:04,VALID,917.949,VALID,0,VALID,97.6026,VALID,0,VALID,19.8378,VALID,148,VALID,1.17891,
2011-05-20, 00:59:04,VALID,917.958,VALID,0,VALID,97.6026,VALID,0,VALID,19.8783,VALID,142,VALID,1.54922,
2011-05-20, 01:00:04,VALID,917.919,VALID,0,VALID,97.6255,VALID,0,VALID,19.9173,VALID,153,VALID,1.68438,
2011-05-20, 01:01:04,VALID,917.953,VALID,0,VALID,97.6102,VALID,0,VALID,19.9173,VALID,145,VALID,1.29609,
2011-05-20, 01:02:04,VALID,917.934,VALID,0,VALID,97.6102,VALID,0,VALID,19.9353,VALID,137,VALID,1.43906,
2011-05-20, 01:03:04,VALID,917.916,VALID,0,VALID,97.6026,VALID,0,VALID,19.9563,VALID,139,VALID,1.57734,
2011-05-20, 01:04:04,VALID,917.903,VALID,0,VALID,97.6255,VALID,0,VALID,19.9743,VALID,173,VALID,1.52422,
2011-05-20, 01:05:04,VALID,917.885,VALID,0,VALID,97.595,VALID,0,VALID,19.9758,VALID,148,VALID,1.10664,
2011-05-20, 01:06:04,VALID,917.856,VALID,0,VALID,97.5873,VALID,0,VALID,19.9563,VALID,164,VALID,1.00781,
2011-05-20, 01:07:04,VALID,917.817,VALID,0,VALID,97.6102,VALID,0,VALID,19.9758,VALID,127,VALID,2.13242,
2011-05-20, 01:08:04,VALID,917.774,VALID,0,VALID,97.5721,VALID,0,VALID,19.9758,VALID,134,VALID,1.48711,
2011-05-20, 01:09:04,VALID,917.781,VALID,0,VALID,97.5873,VALID,0,VALID,19.9953,VALID,153,VALID,1.3375,
2011-05-20, 01:10:04,VALID,917.746,VALID,0,VALID,97.595,VALID,0,VALID,19.9953,VALID,136,VALID,1.08945,
2011-05-20, 01:11:04,VALID,917.701,VALID,0,VALID,97.5873,VALID,0,VALID,19.9953,VALID,117,VALID,1.19258,
2011-05-20, 01:12:04,VALID,917.698,VALID,0,VALID,97.5569,VALID,0,VALID,19.9953,VALID,110,VALID,1.9625,
2011-05-20, 01:13:04,VALID,917.661,VALID,0,VALID,97.5645,VALID,0,VALID,19.9953,VALID,110,VALID,1.24648,
2011-05-20, 01:14:04,VALID,917.661,VALID,0,VALID,97.5797,VALID,0,VALID,19.9743,VALID,89,VALID,1.51875,
2011-05-20, 01:15:04,VALID,917.615,VALID,0,VALID,97.5797,VALID,0,VALID,20.0148,VALID,125,VALID,1.91211,
2011-05-20, 01:16:04,VALID,917.586,VALID,0,VALID,97.5416,VALID,0,VALID,19.9953,VALID,94,VALID,2.07773,
2011-05-20, 01:17:04,VALID,917.589,VALID,0,VALID,97.534,VALID,0,VALID,20.0343,VALID,134,VALID,1.78711,
2011-05-20, 01:18:04,VALID,917.549,VALID,0,VALID,97.5416,VALID,0,VALID,20.0343,VALID,146,VALID,1.23906,
2011-05-20, 01:19:04,VALID,917.538,VALID,0,VALID,97.534,VALID,0,VALID,20.0343,VALID,124,VALID,1.80039,
2011-05-20, 01:20:04,VALID,917.504,VALID,0,VALID,97.5264,VALID,0,VALID,20.0343,VALID,105,VALID,1.58008,
2011-05-20, 01:21:04,VALID,917.493,VALID,0,VALID,97.5416,VALID,0.107441,VALID,20.0343,VALID,130,VALID,0.901563,
2011-05-20, 01:22:04,VALID,917.474,VALID,0,VALID,97.5264,VALID,0,VALID,20.0343,VALID,80,VALID,0.939062,
2011-05-20, 01:23:04,VALID,917.466,VALID,0,VALID,97.5187,VALID,0,VALID,20.0148,VALID,80,VALID,0.696094,
2011-05-20, 01:24:04,VALID,917.449,VALID,0,VALID,97.5187,VALID,0,VALID,19.9938,VALID,80,VALID,0.555859,
2011-05-20, 01:25:04,VALID,917.408,VALID,0,VALID,97.5035,VALID,0,VALID,20.0148,VALID,80,VALID,0.340625,
2011-05-20, 01:26:04,VALID,917.422,VALID,0,VALID,97.5187,VALID,0,VALID,19.9938,VALID,80,VALID,0.592578,
2011-05-20, 01:27:04,VALID,917.39,VALID,0,VALID,97.5111,VALID,0,VALID,19.9953,VALID,80,VALID,0.688281,
2011-05-20, 01:28:04,VALID,917.364,VALID,0,VALID,97.5187,VALID,0,VALID,19.9953,VALID,80,VALID,0.813672,
2011-05-20, 01:29:04,VALID,917.39,VALID,0,VALID,97.5111,VALID,0,VALID,19.9758,VALID,129,VALID,0.8625,
2011-05-20, 01:30:04,VALID,917.39,VALID,0,VALID,97.5111,VALID,0,VALID,19.9758,VALID,130,VALID,0.81875,
2011-05-20, 01:31:04,VALID,917.342,VALID,0,VALID,97.5035,VALID,0,VALID,19.9758,VALID,130,VALID,0.603906,
2011-05-20, 01:32:04,VALID,917.331,VALID,0,VALID,97.5264,VALID,0,VALID,19.9563,VALID,130,VALID,0.615625,
2011-05-20, 01:33:04,VALID,917.34,VALID,0,VALID,97.5187,VALID,0,VALID,19.9158,VALID,130,VALID,0.594922,
2011-05-20, 01:34:04,VALID,917.329,VALID,0,VALID,97.5111,VALID,0,VALID,19.9368,VALID,130,VALID,0.391406,
2011-05-20, 01:35:04,VALID,917.351,VALID,0,VALID,97.5111,VALID,0,VALID,19.9368,VALID,130,VALID,0.482031,
2011-05-20, 01:36:04,VALID,917.338,VALID,0,VALID,97.4959,VALID,0,VALID,19.9368,VALID,130,VALID,0.317578,
2011-05-20, 01:37:04,VALID,917.335,VALID,0,VALID,97.5035,VALID,0,VALID,19.9173,VALID,130,VALID,0.473828,
2011-05-20, 01:38:04,VALID,917.326,VALID,0,VALID,97.5111,VALID,0,VALID,19.9563,VALID,130,VALID,0.226172,
2011-05-20, 01:39:04,VALID,917.312,VALID,0,VALID,97.4959,VALID,0,VALID,19.9368,VALID,130,VALID,0.548828,
2011-05-20, 01:40:04,VALID,917.318,VALID,0,VALID,97.5187,VALID,0,VALID,19.9368,VALID,130,VALID,0.423438,
2011-05-20, 01:41:04,VALID,917.322,VALID,0,VALID,97.5035,VALID,0,VALID,19.9173,VALID,130,VALID,0.740625,
2011-05-20, 01:42:04,VALID,917.336,VALID,0,VALID,97.5035,VALID,0,VALID,19.9368,VALID,130,VALID,0.351172,
2011-05-20, 01:43:04,VALID,917.324,VALID,0,VALID,97.5035,VALID,0,VALID,19.9173,VALID,130,VALID,0.640234,
2011-05-20, 01:44:04,VALID,917.342,VALID,0,VALID,97.5187,VALID,0,VALID,19.8978,VALID,130,VALID,0.364062,
2011-05-20, 01:45:04,VALID,917.317,VALID,0,VALID,97.4959,VALID,0,VALID,19.9173,VALID,130,VALID,0.558203,
2011-05-20, 01:46:04,VALID,917.369,VALID,0,VALID,97.5187,VALID,0,VALID,19.8978,VALID,129,VALID,0.66875,
2011-05-20, 01:47:04,VALID,917.321,VALID,0,VALID,97.5111,VALID,0,VALID,19.8978,VALID,130,VALID,0.801172,
2011-05-20, 01:48:04,VALID,917.307,VALID,0,VALID,97.5187,VALID,0,VALID,19.8978,VALID,129,VALID,0.990625,
2011-05-20, 01:49:04,VALID,917.303,VALID,0,VALID,97.4959,VALID,0,VALID,19.8768,VALID,130,VALID,1.30313,
2011-05-20, 01:50:04,VALID,917.276,VALID,0,VALID,97.5035,VALID,0,VALID,19.8783,VALID,53,VALID,1.55586,
2011-05-20, 01:51:04,VALID,917.249,VALID,0,VALID,97.5035,VALID,0,VALID,19.8588,VALID,54,VALID,1.85469,
2011-05-20, 01:52:04,VALID,917.25,VALID,0,VALID,97.5111,VALID,0,VALID,19.8393,VALID,53,VALID,1.76523,
2011-05-20, 01:53:04,VALID,917.241,VALID,0,VALID,97.5111,VALID,0,VALID,19.8393,VALID,53,VALID,1.85156,
2011-05-20, 01:54:04,VALID,917.216,VALID,0,VALID,97.534,VALID,0,VALID,19.8198,VALID,53,VALID,1.7168,
2011-05-20, 01:55:04,VALID,917.22,VALID,0,VALID,97.5187,VALID,0,VALID,19.8393,VALID,44,VALID,1.71133,
2011-05-20, 01:56:04,VALID,917.179,VALID,0,VALID,97.5264,VALID,0,VALID,19.8393,VALID,34,VALID,1.95586,
2011-05-20, 01:57:04,VALID,917.178,VALID,0,VALID,97.5569,VALID,0,VALID,19.8393,VALID,44,VALID,1.67227,
2011-05-20, 01:58:04,VALID,917.18,VALID,0,VALID,97.5416,VALID,0,VALID,19.8393,VALID,41,VALID,1.53516,
2011-05-20, 01:59:04,VALID,917.192,VALID,0,VALID,97.534,VALID,0,VALID,19.8393,VALID,42,VALID,1.02188,
2011-05-20, 02:00:04,VALID,917.193,VALID,0,VALID,97.5492,VALID,0,VALID,19.8183,VALID,42,VALID,0.758594,
2011-05-20, 02:01:04,VALID,917.186,VALID,0,VALID,97.5492,VALID,0,VALID,19.8588,VALID,42,VALID,0.535937,
2011-05-20, 02:02:04,VALID,917.23,VALID,0,VALID,97.5721,VALID,0,VALID,19.8588,VALID,43,VALID,0,
2011-05-20, 02:03:04,VALID,917.212,VALID,0,VALID,97.5492,VALID,0,VALID,19.8978,VALID,42,VALID,0,
2011-05-20, 02:04:04,VALID,917.184,VALID,0,VALID,97.5492,VALID,0,VALID,19.8978,VALID,43,VALID,0.495313,
2011-05-20, 02:05:04,VALID,917.151,VALID,0,VALID,97.5645,VALID,0,VALID,19.8768,VALID,42,VALID,0.349219,
2011-05-20, 02:06:04,VALID,917.113,VALID,0,VALID,97.5492,VALID,0,VALID,19.8963,VALID,43,VALID,0,
2011-05-20, 02:07:04,VALID,917.077,VALID,0,VALID,97.5569,VALID,0,VALID,19.9173,VALID,43,VALID,0.452734,
2011-05-20, 02:08:04,VALID,917.025,VALID,0,VALID,97.5569,VALID,0,VALID,19.9173,VALID,42,VALID,0.775,
2011-05-20, 02:09:04,VALID,916.961,VALID,0,VALID,97.5569,VALID,0,VALID,19.9173,VALID,42,VALID,0.973047,
2011-05-20, 02:10:04,VALID,916.927,VALID,0,VALID,97.5416,VALID,0,VALID,19.8768,VALID,42,VALID,1.10781,
2011-05-20, 02:11:04,VALID,916.892,VALID,0,VALID,97.5492,VALID,0,VALID,19.8783,VALID,42,VALID,1.08672,
2011-05-20, 02:12:04,VALID,916.879,VALID,0,VALID,97.5569,VALID,0,VALID,19.8588,VALID,43,VALID,1.20469,
2011-05-20, 02:13:04,VALID,916.896,VALID,0,VALID,97.5492,VALID,0,VALID,19.8393,VALID,43,VALID,1.17695,
2011-05-20, 02:14:04,VALID,916.842,VALID,0,VALID,97.5492,VALID,0,VALID,19.8198,VALID,43,VALID,0.984766,
2011-05-20, 02:15:04,VALID,916.792,VALID,0,VALID,97.5492,VALID,0,VALID,19.8003,VALID,44,VALID,1.2832,
2011-05-20, 02:16:04,VALID,916.739,VALID,0,VALID,97.5645,VALID,0,VALID,19.8003,VALID,48,VALID,1.54961,
2011-05-20, 02:17:04,VALID,916.689,VALID,0,VALID,97.5645,VALID,0,VALID,19.7988,VALID,48,VALID,1.34648,
2011-05-20, 02:18:04,VALID,916.651,VALID,0,VALID,97.5797,VALID,0,VALID,19.8393,VALID,48,VALID,1.61094,
2011-05-20, 02:19:04,VALID,916.651,VALID,0,VALID,97.5569,VALID,0,VALID,19.8783,VALID,48,VALID,1.10195,
2011-05-20, 02:20:04,VALID,916.634,VALID,0,VALID,97.5645,VALID,0,VALID,19.8783,VALID,48,VALID,1.67422,
2011-05-20, 02:21:04,VALID,916.592,VALID,0,VALID,97.5569,VALID,0,VALID,19.8978,VALID,48,VALID,1.49023,
2011-05-20, 02:22:04,VALID,916.582,VALID,0,VALID,97.534,VALID,0,VALID,19.8783,VALID,48,VALID,1.44844,
2011-05-20, 02:23:04,VALID,916.523,VALID,0,VALID,97.5645,VALID,0,VALID,19.8588,VALID,55,VALID,1.43672,
2011-05-20, 02:24:04,VALID,916.52,VALID,0,VALID,97.534,VALID,0,VALID,19.8588,VALID,36,VALID,1.78477,
2011-05-20, 02:25:04,VALID,916.485,VALID,0,VALID,97.5492,VALID,0,VALID,19.8588,VALID,28,VALID,1.35508,
2011-05-20, 02:26:04,VALID,916.424,VALID,0,VALID,97.5492,VALID,0,VALID,19.8378,VALID,8,VALID,1.9625,
2011-05-20, 02:27:04,VALID,916.419,VALID,0,VALID,97.5416,VALID,0,VALID,19.8393,VALID,25,VALID,1.35742,
2011-05-20, 02:28:04,VALID,916.395,VALID,0,VALID,97.5416,VALID,0,VALID,19.8393,VALID,22,VALID,1.97656,
2011-05-20, 02:29:04,VALID,916.384,VALID,0,VALID,97.5416,VALID,0,VALID,19.8198,VALID,23,VALID,1.96094,
2011-05-20, 02:30:04,VALID,916.383,VALID,0,VALID,97.5645,VALID,0,VALID,19.8198,VALID,24,VALID,2.16328,
2011-05-20, 02:31:04,VALID,916.398,VALID,0,VALID,97.5721,VALID,0,VALID,19.8198,VALID,26,VALID,1.4707,
2011-05-20, 02:32:04,VALID,916.42,VALID,0,VALID,97.5492,VALID,0,VALID,19.8198,VALID,26,VALID,1.31719,
2011-05-20, 02:33:04,VALID,916.401,VALID,0,VALID,97.5645,VALID,0,VALID,19.8003,VALID,26,VALID,0.951953,
2011-05-20, 02:34:04,VALID,916.397,VALID,0,VALID,97.5416,VALID,0,VALID,19.8003,VALID,26,VALID,0.958594,
2011-05-20, 02:35:04,VALID,916.372,VALID,0,VALID,97.5645,VALID,0,VALID,19.7793,VALID,26,VALID,0.842969,
2011-05-20, 02:36:04,VALID,916.344,VALID,0,VALID,97.5721,VALID,0,VALID,19.8003,VALID,26,VALID,0.119922,
2011-05-20, 02:37:04,VALID,916.33,VALID,0,VALID,97.5721,VALID,0,VALID,19.8003,VALID,26,VALID,0.648828,
2011-05-20, 02:38:04,VALID,916.341,VALID,0,VALID,97.5645,VALID,0,VALID,19.8003,VALID,26,VALID,0.996094,
2011-05-20, 02:39:04,VALID,916.355,VALID,0,VALID,97.5721,VALID,0,VALID,19.8393,VALID,26,VALID,1.03555,
2011-05-20, 02:40:04,VALID,916.372,VALID,0,VALID,97.5721,VALID,0,VALID,19.8198,VALID,26,VALID,1.15117,
2011-05-20, 02:41:04,VALID,916.35,VALID,0,VALID,97.5797,VALID,0,VALID,19.8198,VALID,288,VALID,0.976953,
2011-05-20, 02:42:04,VALID,916.357,VALID,0,VALID,97.5797,VALID,0,VALID,19.8198,VALID,254,VALID,2.03047,
2011-05-20, 02:43:04,VALID,916.358,VALID,0,VALID,97.5645,VALID,0,VALID,19.8003,VALID,243,VALID,1.56836,
2011-05-20, 02:44:04,VALID,916.372,VALID,0,VALID,97.5797,VALID,0,VALID,19.7988,VALID,259,VALID,2.38906,
2011-05-20, 02:45:04,VALID,916.372,VALID,0,VALID,97.5569,VALID,0,VALID,19.8198,VALID,237,VALID,1.27656,
2011-05-20, 02:46:04,VALID,916.334,VALID,0,VALID,97.5721,VALID,0,VALID,19.7808,VALID,243,VALID,1.62344,
2011-05-20, 02:47:04,VALID,916.341,VALID,0,VALID,97.5721,VALID,0,VALID,19.8003,VALID,267,VALID,1.32813,
2011-05-20, 02:48:04,VALID,916.364,VALID,0,VALID,97.595,VALID,0,VALID,19.8003,VALID,267,VALID,0.973047,
2011-05-20, 02:49:04,VALID,916.376,VALID,0,VALID,97.5797,VALID,0,VALID,19.8003,VALID,216,VALID,1.38672,
2011-05-20, 02:50:04,VALID,916.399,VALID,0,VALID,97.5569,VALID,0,VALID,19.8003,VALID,221,VALID,1.04648,
2011-05-20, 02:51:04,VALID,916.417,VALID,0,VALID,97.595,VALID,0,VALID,19.7808,VALID,190,VALID,0.883203,
2011-05-20, 02:52:04,VALID,916.376,VALID,0,VALID,97.5873,VALID,0,VALID,19.7808,VALID,196,VALID,1.95078,
2011-05-20, 02:53:04,VALID,916.45,VALID,0,VALID,97.5873,VALID,0,VALID,19.7808,VALID,213,VALID,1.40078,
2011-05-20, 02:54:04,VALID,916.434,VALID,0,VALID,97.5645,VALID,0,VALID,19.7808,VALID,208,VALID,1.97539,
2011-05-20, 02:55:04,VALID,916.469,VALID,0,VALID,97.5645,VALID,0,VALID,19.7808,VALID,200,VALID,1.15352,
2011-05-20, 02:56:04,VALID,916.503,VALID,0,VALID,97.5873,VALID,0,VALID,19.8003,VALID,218,VALID,1.15195,
2011-05-20, 02:57:04,VALID,916.515,VALID,0,VALID,97.5873,VALID,0,VALID,19.7808,VALID,196,VALID,1.18555,
2011-05-20, 02:58:04,VALID,916.551,VALID,0,VALID,97.6026,VALID,0,VALID,19.7613,VALID,184,VALID,1.4582,
2011-05-20, 02:59:04,VALID,916.568,VALID,0,VALID,97.6102,VALID,0,VALID,19.7613,VALID,189,VALID,1.01602,
2011-05-20, 03:00:04,VALID,916.584,VALID,0,VALID,97.6026,VALID,0,VALID,19.7613,VALID,199,VALID,1.125,
2011-05-20, 03:01:04,VALID,916.579,VALID,0,VALID,97.6026,VALID,0,VALID,19.7613,VALID,183,VALID,0.873828,
2011-05-20, 03:02:04,VALID,916.557,VALID,0,VALID,97.5645,VALID,0,VALID,19.7418,VALID,178,VALID,1.30781,
2011-05-20, 03:03:04,VALID,916.599,VALID,0,VALID,97.6178,VALID,0,VALID,19.7418,VALID,168,VALID,1.48828,
2011-05-20, 03:04:04,VALID,916.571,VALID,0,VALID,97.595,VALID,0,VALID,19.7223,VALID,165,VALID,1.11484,
2011-05-20, 03:05:04,VALID,916.575,VALID,0,VALID,97.6102,VALID,0,VALID,19.7418,VALID,156,VALID,0.637891,
2011-05-20, 03:06:04,VALID,916.575,VALID,0,VALID,97.5873,VALID,0,VALID,19.7223,VALID,163,VALID,1.07578,
2011-05-20, 03:07:04,VALID,916.578,VALID,0,VALID,97.595,VALID,0,VALID,19.7223,VALID,172,VALID,1.43359,
2011-05-20, 03:08:04,VALID,916.561,VALID,0,VALID,97.6102,VALID,0,VALID,19.7223,VALID,172,VALID,0.478906,
2011-05-20, 03:09:04,VALID,916.552,VALID,0,VALID,97.6026,VALID,0,VALID,19.7418,VALID,166,VALID,0.775391,
2011-05-20, 03:10:04,VALID,916.512,VALID,0,VALID,97.6102,VALID,0,VALID,19.7433,VALID,166,VALID,0.711328,
2011-05-20, 03:11:04,VALID,916.5,VALID,0,VALID,97.6026,VALID,0,VALID,19.7223,VALID,114,VALID,0.995703,
2011-05-20, 03:12:04,VALID,916.481,VALID,0,VALID,97.6026,VALID,0,VALID,19.7223,VALID,114,VALID,0.688281,
2011-05-20, 03:13:04,VALID,916.482,VALID,0,VALID,97.595,VALID,0,VALID,19.7028,VALID,115,VALID,0.638281,
2011-05-20, 03:14:04,VALID,916.432,VALID,0,VALID,97.5797,VALID,0,VALID,19.7028,VALID,115,VALID,0.873828,
2011-05-20, 03:15:04,VALID,916.428,VALID,0,VALID,97.595,VALID,0,VALID,19.7028,VALID,115,VALID,1.12695,
2011-05-20, 03:16:04,VALID,916.438,VALID,0,VALID,97.6026,VALID,0,VALID,19.7028,VALID,115,VALID,1.13555,
2011-05-20, 03:17:04,VALID,916.422,VALID,0,VALID,97.6255,VALID,0,VALID,19.6833,VALID,115,VALID,0.798047,
2011-05-20, 03:18:04,VALID,916.435,VALID,0,VALID,97.6255,VALID,0,VALID,19.6833,VALID,115,VALID,0.441406,
2011-05-20, 03:19:04,VALID,916.429,VALID,0,VALID,97.6178,VALID,0,VALID,19.6833,VALID,115,VALID,0.529688,
2011-05-20, 03:20:04,VALID,916.417,VALID,0,VALID,97.6026,VALID,0,VALID,19.6638,VALID,115,VALID,0.633984,
2011-05-20, 03:21:04,VALID,916.402,VALID,0,VALID,97.6026,VALID,0,VALID,19.6848,VALID,115,VALID,1.12656,
2011-05-20, 03:22:04,VALID,916.4,VALID,0,VALID,97.6102,VALID,0,VALID,19.6638,VALID,115,VALID,1.17695,
2011-05-20, 03:23:04,VALID,916.387,VALID,0,VALID,97.6255,VALID,0,VALID,19.6443,VALID,115,VALID,1.23945,
2011-05-20, 03:24:04,VALID,916.348,VALID,0,VALID,97.6255,VALID,0,VALID,19.6443,VALID,115,VALID,1.36797,
2011-05-20, 03:25:04,VALID,916.307,VALID,0,VALID,97.6026,VALID,0,VALID,19.6053,VALID,115,VALID,1.76953,
2011-05-20, 03:26:04,VALID,916.295,VALID,0,VALID,97.6178,VALID,0,VALID,19.6248,VALID,42,VALID,1.6418,
2011-05-20, 03:27:04,VALID,916.228,VALID,0,VALID,97.6407,VALID,0,VALID,19.6248,VALID,55,VALID,2.03672,
2011-05-20, 03:28:04,VALID,916.218,VALID,0,VALID,97.6331,VALID,0,VALID,19.6443,VALID,61,VALID,1.67617,
2011-05-20, 03:29:04,VALID,916.203,VALID,0,VALID,97.6178,VALID,0,VALID,19.6248,VALID,59,VALID,1.46836,
2011-05-20, 03:30:04,VALID,916.187,VALID,0,VALID,97.6255,VALID,0,VALID,19.6263,VALID,59,VALID,1.33906,
2011-05-20, 03:31:04,VALID,916.174,VALID,0,VALID,97.6026,VALID,0,VALID,19.6053,VALID,59,VALID,0.728906,
2011-05-20, 03:32:04,VALID,916.167,VALID,0,VALID,97.595,VALID,0,VALID,19.6053,VALID,59,VALID,0.650781,
2011-05-20, 03:33:04,VALID,916.186,VALID,0,VALID,97.595,VALID,0,VALID,19.6263,VALID,59,VALID,0.780078,
2011-05-20, 03:34:04,VALID,916.182,VALID,0,VALID,97.6102,VALID,0,VALID,19.6263,VALID,59,VALID,0.665234,
2011-05-20, 03:35:04,VALID,916.154,VALID,0,VALID,97.6026,VALID,0,VALID,19.6053,VALID,59,VALID,0.869141,
2011-05-20, 03:36:04,VALID,916.161,VALID,0,VALID,97.6255,VALID,0,VALID,19.6053,VALID,113,VALID,1.35664,
2011-05-20, 03:37:04,VALID,916.145,VALID,0,VALID,97.6178,VALID,0,VALID,19.6053,VALID,114,VALID,1.06172,
2011-05-20, 03:38:04,VALID,916.116,VALID,0,VALID,97.6026,VALID,0,VALID,19.6053,VALID,114,VALID,1.14805,
2011-05-20, 03:39:04,VALID,916.086,VALID,0,VALID,97.6331,VALID,0,VALID,19.6053,VALID,113,VALID,0.950391,
2011-05-20, 03:40:04,VALID,916.09,VALID,0,VALID,97.6331,VALID,0,VALID,19.5858,VALID,114,VALID,0.898438,
2011-05-20, 03:41:04,VALID,916.097,VALID,0,VALID,97.595,VALID,0,VALID,19.5858,VALID,114,VALID,0.613281,
2011-05-20, 03:42:04,VALID,916.108,VALID,0,VALID,97.6178,VALID,0,VALID,19.5858,VALID,114,VALID,0.689844,
2011-05-20, 03:43:04,VALID,916.097,VALID,0,VALID,97.6255,VALID,0,VALID,19.5858,VALID,113,VALID,0.456641,
2011-05-20, 03:44:04,VALID,916.152,VALID,0,VALID,97.6102,VALID,0,VALID,19.5663,VALID,113,VALID,0.823438,
2011-05-20, 03:45:04,VALID,916.146,VALID,0,VALID,97.6255,VALID,0,VALID,19.5648,VALID,113,VALID,0.598828,
2011-05-20, 03:46:04,VALID,916.157,VALID,0,VALID,97.6178,VALID,0,VALID,19.5468,VALID,113,VALID,0.573828,